Location: Bavegemberg
(50.9500°N, 3.8833°E)
Time: 12:42:43
(UTC+00:00)

RESURS DK-1 - Pass Details

Date: 23 May 2024
Orbit: 541 x 547 km, 69.9° (Epoch: 16 June)

Event Time Altitude Azimuth Distance (km) Brightness Sun altitude
Rises 02:02:48 0° 329° (NNW) 2,722 6.2 -11.9°
Reaches altitude 10° 02:05:00 10° 331° (NNW) 1,826 5.3 -11.7°
Maximum altitude 02:09:05 76° 57° (ENE) 569 2.5 -11.4°
Drops below altitude 10° 02:13:08 10° 144° (SE) 1,816 4.8 -11.0°
Sets 02:15:20 0° 146° (SE) 2,706 5.7 -10.8°
